Weather History for Drummond Island, MI

Change the Weather History Date:

Thursday, April 24, 2014

  Actual Average (KCIU) Record (KCIU)
Temperature  
Mean Temperature 38 °F -  
Max Temperature 50 °F 56 °F 74 °F (1979)
Min Temperature 26 °F 30 °F 18 °F (1984)
Degree Days  
Heating Degree Days 27    
Moisture  
Dew Point 22 °F    
Average Humidity 55    
Maximum Humidity 92    
Minimum Humidity 28    
Precipitation  
Precipitation 0.00 in - - ()
Sea Level Pressure  
Sea Level Pressure 30.10 in    
Wind  
Wind Speed 2 mph (SE)    
Max Wind Speed 9 mph    
Max Gust Speed -    
Visibility 10 miles    
Events      
Averages and records for this station are not official NWS values.
T = Trace of Precipitation, MM = Missing Value Source: NWS Daily Summary

Daily Weather History Graph

Daily Weather History Graph

Search for Another Location

Airport:

Trip Planner

Search our weather history database for the weather conditions in past years. The results will help you decide how hot, cold, wet, or windy it might be!

Date:

Astronomy

Apr. 24, 2014 Rise Set
Actual Time 6:33 AM EDT 8:33 PM EDT
Civil Twilight 6:00 AM EDT 9:06 PM EDT
Nautical Twilight 5:21 AM EDT 9:46 PM EDT
Astronomical Twilight 4:37 AM EDT 10:30 PM EDT
Moon 4:00 AM EDT (4/24) 3:33 PM EDT (4/24)
Length of Visible Light 15h 05m
Length of Day
14h 00m
Waning Crescent, 24% of the Moon is Illuminated
Apr 24
Waning Crescent
Apr 29
New
May 6
First Quarter
May 14
Full
May 21
Last Quarter

Hourly Weather History & Observations

Time (EDT) Temp. Windchill Dew Point Humidity Pressure Visibility Wind Dir Wind Speed Gust Speed Precip Events Conditions
12:15 AM 33.4 °F - 24.4 °F 70% 30.12 in 10.0 mi Calm Calm - N/A   Clear
12:35 AM 32.7 °F - 24.6 °F 72% 30.12 in 10.0 mi Calm Calm - N/A   Clear
12:55 AM 32.4 °F - 24.3 °F 72% 30.13 in 10.0 mi Calm Calm - N/A   Clear
1:15 AM 31.3 °F - 24.1 °F 75% 30.13 in 10.0 mi Calm Calm - N/A   Clear
1:35 AM 30.6 °F - 23.9 °F 76% 30.13 in 10.0 mi Calm Calm - N/A   Clear
1:55 AM 29.3 °F - 23.9 °F 80% 30.13 in 10.0 mi Calm Calm - N/A   Clear
2:15 AM 29.5 °F - 24.1 °F 80% 30.13 in 10.0 mi Calm Calm - N/A   Clear
2:35 AM 28.9 °F - 24.4 °F 83% 30.13 in 10.0 mi Calm Calm - N/A   Clear
2:55 AM 28.4 °F - 23.9 °F 83% 30.13 in 10.0 mi Calm Calm - N/A   Clear
3:15 AM 28.2 °F - 24.4 °F 86% 30.13 in 10.0 mi Calm Calm - N/A   Clear
3:35 AM 27.3 °F - 23.9 °F 87% 30.13 in 10.0 mi Calm Calm - N/A   Clear
3:55 AM 27.5 °F - 24.3 °F 88% 30.14 in 10.0 mi Calm Calm - N/A   Clear
4:15 AM 26.8 °F - 24.3 °F 90% 30.14 in 10.0 mi Calm Calm - N/A   Clear
4:35 AM 27.1 °F - 24.8 °F 91% 30.14 in 10.0 mi Calm Calm - N/A   Clear
4:55 AM 27.5 °F - 24.6 °F 89% 30.15 in 10.0 mi Calm Calm - N/A   Clear
5:15 AM 27.0 °F - 24.4 °F 90% 30.15 in 10.0 mi Calm Calm - N/A   Clear
5:35 AM 27.5 °F - 25.3 °F 92% 30.15 in 10.0 mi Calm Calm - N/A   Clear
5:55 AM 27.3 °F - 25.0 °F 91% 30.15 in 10.0 mi Calm Calm - N/A   Clear
6:15 AM 27.9 °F - 25.3 °F 90% 30.15 in 10.0 mi Calm Calm - N/A   Clear
6:35 AM 28.8 °F - 25.3 °F 87% 30.15 in 10.0 mi Calm Calm - N/A   Clear
6:55 AM 30.7 °F - 25.0 °F 79% 30.15 in 10.0 mi Calm Calm - N/A   Clear
7:15 AM 31.1 °F - 25.3 °F 79% 30.16 in 10.0 mi Calm Calm - N/A   Clear
7:34 AM 31.8 °F - 25.9 °F 79% 30.16 in 10.0 mi Calm Calm - N/A   Clear
7:55 AM 32.0 °F - 26.6 °F 80% 30.17 in 10.0 mi Calm Calm - N/A   Clear
8:15 AM 32.9 °F - 26.6 °F 78% 30.16 in 10.0 mi Calm Calm - N/A   Clear
8:35 AM 35.8 °F - 25.5 °F 66% 30.16 in 10.0 mi Calm Calm - N/A   Clear
8:55 AM 37.8 °F - 24.8 °F 60% 30.16 in 10.0 mi Calm Calm - N/A   Clear
9:15 AM 40.3 °F 38.2 °F 24.3 °F 53% 30.16 in 10.0 mi ESE 3.5 mph - N/A   Clear
9:35 AM 42.6 °F 39.9 °F 23.2 °F 46% 30.16 in 10.0 mi ESE 4.6 mph - N/A   Clear
9:55 AM 44.6 °F - 19.9 °F 37% 30.17 in 10.0 mi Calm Calm - N/A   Clear
10:15 AM 46.4 °F - 20.5 °F 36% 30.17 in 10.0 mi Calm Calm - N/A   Clear
10:35 AM 48.2 °F - 20.5 °F 33% 30.16 in 10.0 mi Calm Calm - N/A   Clear
10:55 AM 48.7 °F - 19.2 °F 31% 30.16 in 10.0 mi South 5.8 mph - N/A   Clear
11:15 AM 50.0 °F - 17.4 °F 28% 30.16 in 10.0 mi South 4.6 mph - N/A   Clear
11:35 AM 49.1 °F - 17.6 °F 29% 30.16 in 10.0 mi South 5.8 mph - N/A   Clear
11:55 AM 49.1 °F - 17.8 °F 29% 30.16 in 10.0 mi SE 6.9 mph - N/A   Clear
12:15 PM 49.6 °F - 18.0 °F 29% 30.15 in 10.0 mi SSE 8.1 mph - N/A   Clear
12:35 PM 49.3 °F - 17.1 °F 28% 30.15 in 10.0 mi South 4.6 mph - N/A   Clear
12:54 PM 49.3 °F - 17.1 °F 28% 30.14 in 10.0 mi SSE 6.9 mph - N/A   Clear
1:15 PM 48.9 °F - 17.1 °F 28% 30.14 in 10.0 mi South 6.9 mph - N/A   Clear
1:35 PM 48.7 °F - 17.2 °F 29% 30.14 in 10.0 mi South 6.9 mph - N/A   Clear
1:55 PM 47.5 °F - 18.0 °F 31% 30.13 in 10.0 mi SE 6.9 mph - N/A   Scattered Clouds
2:15 PM 47.5 °F - 18.5 °F 32% 30.13 in 10.0 mi ESE 9.2 mph - N/A   Mostly Cloudy
2:35 PM 47.1 °F - 19.6 °F 34% 30.12 in 10.0 mi ESE 9.2 mph - N/A   Overcast
2:55 PM 45.9 °F 42.9 °F 19.6 °F 35% 30.11 in 10.0 mi SSE 5.8 mph - N/A   Overcast
3:15 PM 44.8 °F 39.9 °F 19.4 °F 36% 30.11 in 10.0 mi SE 9.2 mph - N/A   Overcast
3:35 PM 45.0 °F 40.6 °F 20.8 °F 38% 30.10 in 10.0 mi SE 8.1 mph - N/A   Mostly Cloudy
3:55 PM 45.5 °F 42.5 °F 21.0 °F 38% 30.09 in 10.0 mi SSE 5.8 mph - N/A   Overcast
4:15 PM 45.9 °F 41.7 °F 21.0 °F 37% 30.08 in 10.0 mi SSE 8.1 mph - N/A   Mostly Cloudy
4:35 PM 45.5 °F 42.5 °F 19.9 °F 36% 30.07 in 10.0 mi SSE 5.8 mph - N/A   Overcast
4:55 PM 45.5 °F 43.2 °F 20.5 °F 37% 30.06 in 10.0 mi SE 4.6 mph - N/A   Overcast
5:15 PM 45.1 °F 41.4 °F 20.8 °F 38% 30.06 in 10.0 mi SE 6.9 mph - N/A   Overcast
5:35 PM 44.2 °F 40.3 °F 20.8 °F 39% 30.05 in 10.0 mi SSE 6.9 mph - N/A   Overcast
5:55 PM 44.1 °F 40.8 °F 22.1 °F 42% 30.04 in 10.0 mi SE 5.8 mph - N/A   Overcast
6:15 PM 43.7 °F 41.1 °F 21.6 °F 41% 30.04 in 10.0 mi SSE 4.6 mph - N/A   Overcast
6:35 PM 42.8 °F 39.3 °F 22.1 °F 44% 30.04 in 10.0 mi SSE 5.8 mph - N/A   Overcast
6:55 PM 41.5 °F 37.1 °F 23.5 °F 49% 30.04 in 10.0 mi SE 6.9 mph - N/A   Overcast
7:15 PM 40.8 °F 37.8 °F 24.3 °F 52% 30.04 in 10.0 mi SE 4.6 mph - N/A   Overcast
7:35 PM 40.1 °F 36.1 °F 24.6 °F 54% 30.04 in 10.0 mi SE 5.8 mph - N/A   Overcast
7:55 PM 39.4 °F 35.2 °F 25.0 °F 56% 30.03 in 10.0 mi SE 5.8 mph - N/A   Overcast
8:15 PM 39.2 °F 33.6 °F 24.6 °F 56% 30.02 in 10.0 mi SE 8.1 mph - N/A   Overcast
8:35 PM 38.7 °F 33.6 °F 23.4 °F 54% 30.01 in 10.0 mi SE 6.9 mph - N/A   Overcast
8:55 PM 39.2 °F 34.2 °F 21.7 °F 50% 30.00 in 10.0 mi ESE 6.9 mph - N/A   Overcast
9:15 PM 38.7 °F 33.6 °F 21.4 °F 50% 30.00 in 10.0 mi ESE 6.9 mph - N/A   Overcast
9:35 PM 39.4 °F 35.2 °F 19.4 °F 45% 30.00 in 10.0 mi SE 5.8 mph - N/A   Overcast
9:55 PM 39.6 °F 35.4 °F 18.9 °F 43% 30.00 in 10.0 mi SE 5.8 mph - N/A   Overcast
10:15 PM 39.7 °F 36.5 °F 17.6 °F 41% 30.00 in 10.0 mi SE 4.6 mph - N/A   Overcast
10:35 PM 39.7 °F - 18.1 °F 42% 30.00 in 10.0 mi Calm Calm - N/A   Overcast
10:55 PM 39.9 °F - 17.4 °F 40% 30.00 in 10.0 mi Calm Calm - N/A   Overcast
11:15 PM 38.8 °F 36.5 °F 19.8 °F 46% 29.98 in 10.0 mi North 3.5 mph - N/A   Overcast
11:35 PM 38.7 °F - 19.2 °F 46% 29.99 in 10.0 mi Calm Calm - N/A   Overcast
11:55 PM 38.3 °F - 21.0 °F 50% 29.97 in 10.0 mi Calm Calm - N/A   Overcast